| time (UTC) | temp F | wind direction | speed knots | gust knots | rain 1hr in | rain 24hr in | rain mn in | humidity % | barometer mb |
| 20260506102500 | 56 | 207 | 13.0 | 18.2 | 0.00 | 0.00 | 0.00 | 91 | 29.8 |
| 20260506093500 | 56 | 219 | 13.0 | 23.5 | 0.00 | 0.00 | 0.00 | 91 | 29.8 |
| 20260506090500 | 56 | 210 | 8.7 | 16.5 | 0.00 | 0.00 | 0.00 | 91 | 29.8 |
| 20260506085000 | 56 | 206 | 11.3 | 16.5 | 0.00 | 0.00 | 0.00 | 91 | 29.8 |
| 20260506081001 | 56 | 210 | 13.0 | 20.0 | 0.00 | 0.00 | 0.00 | 89 | 29.8 |
| 20260506062500 | 57 | 225 | 16.5 | 23.5 | 0.00 | 0.00 | 0.00 | 86 | 29.9 |
| 20260506061500 | 57 | 220 | 13.0 | 26.9 | 0.00 | 0.00 | 0.00 | 86 | 29.8 |
| 20260506060500 | 57 | 221 | 13.0 | 23.5 | 0.00 | 0.00 | 0.00 | 85 | 29.9 |
| 20260506042500 | 58 | 220 | 15.6 | 23.5 | 0.00 | 0.00 | 0.00 | 84 | 29.9 |
| 20260506041500 | 58 | 228 | 13.9 | 26.1 | 0.00 | 0.00 | 0.00 | 84 | 29.9 |
| 20260506041000 | 58 | 232 | 14.8 | 22.6 | 0.00 | 0.00 | 0.00 | 83 | 29.9 |
| 20260506034500 | 58 | 238 | 15.6 | 23.5 | 0.00 | 0.00 | 0.00 | 83 | 29.9 |
| 20260506034000 | 58 | 221 | 15.6 | 23.5 | 0.00 | 0.00 | 0.00 | 83 | 29.9 |
| 20260506033500 | 58 | 218 | 11.3 | 18.2 | 0.00 | 0.00 | 0.00 | 83 | 29.9 |
| 20260506031500 | 57 | 218 | 13.9 | 15.6 | 0.00 | 0.00 | 0.00 | 83 | 29.9 |
| 20260506031000 | 58 | 214 | 14.8 | 19.1 | 0.00 | 0.00 | 0.00 | 83 | 29.9 |
| 20260506030500 | 58 | 215 | 9.6 | 24.3 | 0.00 | 0.00 | 0.00 | 83 | 29.9 |
| 20260506025000 | 58 | 221 | 9.6 | 18.2 | 0.00 | 0.00 | 0.00 | 83 | 29.9 |
| 20260506024500 | 58 | 217 | 18.2 | 23.5 | 0.00 | 0.00 | 0.00 | 83 | 29.9 |
| 20260506023500 | 58 | 218 | 15.6 | 21.7 | 0.00 | 0.00 | 0.00 | 83 | 29.9 |
| 20260506020500 | 58 | 233 | 15.6 | 26.1 | 0.00 | 0.00 | 0.00 | 82 | 29.9 |
| 20260506020000 | 59 | 227 | 16.5 | 26.9 | 0.00 | 0.00 | 0.00 | 81 | 29.9 |
| 20260506015500 | 58 | 214 | 8.7 | 25.2 | 0.00 | 0.00 | 0.00 | 81 | 29.9 |
| 20260506015001 | 58 | 214 | 9.6 | 18.2 | 0.00 | 0.00 | 0.00 | 81 | 29.9 |
| 20260506014501 | 58 | 219 | 11.3 | 16.5 | 0.00 | 0.00 | 0.00 | 81 | 29.9 |
| 20260506013500 | 59 | 210 | 13.0 | 24.3 | 0.00 | 0.00 | 0.00 | 80 | 29.9 |
| 20260506012500 | 58 | 211 | 21.7 | 25.2 | 0.00 | 0.00 | 0.00 | 80 | 29.9 |
| 20260506012000 | 58 | 220 | 14.8 | 25.2 | 0.00 | 0.00 | 0.00 | 80 | 29.9 |
| 20260506011500 | 59 | 211 | 13.0 | 21.7 | 0.00 | 0.00 | 0.00 | 79 | 29.9 |
| 20260506011000 | 59 | 208 | 13.0 | 20.9 | 0.00 | 0.00 | 0.00 | 78 | 29.9 |
| 20260506004000 | 60 | 211 | 17.4 | 31.3 | 0.00 | 0.00 | 0.00 | 77 | 29.8 |
| 20260506003500 | 59 | 210 | 20.9 | 26.9 | 0.00 | 0.00 | 0.00 | 77 | 29.8 |
| 20260506003000 | 60 | 212 | 16.5 | 25.2 | 0.00 | 0.00 | 0.00 | 77 | 29.8 |
| 20260506002500 | 60 | 211 | 11.3 | 29.5 | 0.00 | 0.00 | 0.00 | 77 | 29.8 |
| 20260506002000 | 59 | 219 | 18.2 | 26.1 | 0.00 | 0.00 | 0.00 | 77 | 29.8 |
| 20260506001500 | 60 | 211 | 18.2 | 26.9 | 0.00 | 0.00 | 0.00 | 77 | 29.8 |
| 20260506001000 | 60 | 203 | 17.4 | 26.9 | 0.00 | 0.00 | 0.00 | 77 | 29.8 |
| 20260506000500 | 60 | 201 | 7.0 | 21.7 | 0.00 | 0.00 | 0.00 | 77 | 29.8 |
| 20260506000000 | 60 | 219 | 16.5 | 25.2 | 0.00 | 0.00 | 0.00 | 77 | 29.8 |
| 20260505235500 | 60 | 207 | 15.6 | 29.5 | 0.00 | 0.00 | 0.00 | 77 | 29.8 |
| 20260505234500 | 60 | 198 | 11.3 | 27.8 | 0.00 | 0.00 | 0.00 | 76 | 29.8 |
| 20260505233000 | 60 | 215 | 19.1 | 26.9 | 0.00 | 0.00 | 0.00 | 76 | 29.8 |
| 20260505231000 | 60 | 223 | 14.8 | 40.0 | 0.00 | 0.00 | 0.00 | 76 | 29.8 |
| 20260505230500 | 60 | 204 | 13.9 | 35.6 | 0.00 | 0.00 | 0.00 | 77 | 29.8 |
| 20260505230000 | 60 | 212 | 13.9 | 33.0 | 0.00 | 0.00 | 0.00 | 77 | 29.8 |
| 20260505225000 | 60 | 219 | 11.3 | 21.7 | 0.00 | 0.00 | 0.00 | 77 | 29.8 |
| 20260505224500 | 60 | 219 | 15.6 | 26.9 | 0.00 | 0.00 | 0.00 | 77 | 29.8 |
| 20260505224000 | 60 | 214 | 11.3 | 26.1 | 0.00 | 0.00 | 0.00 | 77 | 29.8 |
| 20260505223500 | 60 | 218 | 16.5 | 30.4 | 0.00 | 0.00 | 0.00 | 77 | 29.8 |
| 20260505222500 | 60 | 205 | 14.8 | 31.3 | 0.00 | 0.00 | 0.00 | 76 | 29.8 |
| 20260505221500 | 60 | 215 | 23.5 | 26.1 | 0.00 | 0.00 | 0.00 | 76 | 29.8 |
| 20260505221000 | 60 | 202 | 13.9 | 21.7 | 0.00 | 0.00 | 0.00 | 76 | 29.8 |
| 20260505220500 | 61 | 195 | 22.6 | 28.7 | 0.00 | 0.00 | 0.00 | 75 | 29.8 |
| 20260505220000 | 60 | 199 | 16.5 | 25.2 | 0.00 | 0.00 | 0.00 | 75 | 29.8 |
| 20260505215500 | 60 | 206 | 17.4 | 22.6 | 0.00 | 0.00 | 0.00 | 75 | 29.8 |
| 20260505215000 | 60 | 210 | 16.5 | 26.1 | 0.00 | 0.00 | 0.00 | 76 | 29.8 |
| 20260505214501 | 60 | 221 | 14.8 | 22.6 | 0.00 | 0.00 | 0.00 | 75 | 29.8 |
| 20260505213500 | 60 | 202 | 13.9 | 23.5 | 0.00 | 0.00 | 0.00 | 75 | 29.8 |
| 20260505213000 | 60 | 197 | 15.6 | 26.1 | 0.00 | 0.00 | 0.00 | 74 | 29.8 |
| 20260505212000 | 61 | 192 | 13.0 | 26.9 | 0.00 | 0.00 | 0.00 | 74 | 29.8 |
| 20260505211500 | 61 | 197 | 7.0 | 27.8 | 0.00 | 0.00 | 0.00 | 73 | 29.8 |
| 20260505211000 | 61 | 216 | 21.7 | 27.8 | 0.00 | 0.00 | 0.00 | 74 | 29.8 |
| 20260505210500 | 61 | 194 | 8.7 | 27.8 | 0.00 | 0.00 | 0.00 | 74 | 29.8 |
| 20260505210000 | 61 | 186 | 10.4 | 28.7 | 0.00 | 0.00 | 0.00 | 74 | 29.8 |
| 20260505205500 | 61 | 215 | 20.0 | 26.9 | 0.00 | 0.00 | 0.00 | 74 | 29.8 |
| 20260505205000 | 61 | 200 | 22.6 | 24.3 | 0.00 | 0.00 | 0.00 | 73 | 29.8 |
| 20260505204500 | 61 | 193 | 4.3 | 25.2 | 0.00 | 0.00 | 0.00 | 74 | 29.8 |
| 20260505204000 | 61 | 196 | 22.6 | 26.1 | 0.00 | 0.00 | 0.00 | 74 | 29.8 |
| 20260505203500 | 61 | 207 | 23.5 | 26.9 | 0.00 | 0.00 | 0.00 | 74 | 29.8 |
| 20260505203000 | 61 | 206 | 13.9 | 25.2 | 0.00 | 0.00 | 0.00 | 75 | 29.8 |
| 20260505202500 | 60 | 214 | 13.0 | 22.6 | 0.00 | 0.00 | 0.00 | 76 | 29.8 |
| 20260505202001 | 60 | 207 | 13.0 | 20.0 | 0.00 | 0.00 | 0.00 | 76 | 29.8 |
| 20260505201501 | 60 | 224 | 18.2 | 22.6 | 0.00 | 0.00 | 0.00 | 77 | 29.8 |
| 20260505201000 | 60 | 212 | 15.6 | 23.5 | 0.00 | 0.00 | 0.00 | 76 | 29.8 |
| 20260505195500 | 60 | 223 | 23.5 | 26.1 | 0.00 | 0.00 | 0.00 | 76 | 29.8 |
| 20260505195000 | 61 | 230 | 5.2 | 20.9 | 0.00 | 0.00 | 0.00 | 76 | 29.8 |
| 20260505194501 | 61 | 215 | 7.0 | 12.2 | 0.00 | 0.00 | 0.00 | 77 | 29.8 |
| 20260505194000 | 60 | 210 | 7.0 | 14.8 | 0.00 | 0.00 | 0.00 | 77 | 29.8 |
| 20260505193500 | 61 | 216 | 15.6 | 19.1 | 0.00 | 0.00 | 0.00 | 76 | 29.8 |
| 20260505193000 | 61 | 216 | 10.4 | 16.5 | 0.00 | 0.00 | 0.00 | 76 | 29.8 |
| 20260505192500 | 61 | 217 | 11.3 | 18.2 | 0.00 | 0.00 | 0.00 | 77 | 29.8 |
| 20260505192000 | 60 | 245 | 13.9 | 16.5 | 0.00 | 0.00 | 0.00 | 77 | 29.8 |
| 20260505191500 | 60 | 207 | 14.8 | 23.5 | 0.00 | 0.00 | 0.00 | 77 | 29.8 |
| 20260505191000 | 60 | 222 | 11.3 | 23.5 | 0.00 | 0.00 | 0.00 | 77 | 29.8 |
| 20260505190500 | 60 | 208 | 7.8 | 18.2 | 0.00 | 0.00 | 0.00 | 77 | 29.8 |
| 20260505190000 | 61 | 237 | 12.2 | 19.1 | 0.00 | 0.00 | 0.00 | 76 | 29.8 |
| 20260505185500 | 60 | 242 | 9.6 | 20.0 | 0.00 | 0.00 | 0.00 | 78 | 29.8 |
| 20260505185000 | 60 | 226 | 9.6 | 16.5 | 0.00 | 0.00 | 0.00 | 78 | 29.8 |
| 20260505184500 | 60 | 214 | 10.4 | 21.7 | 0.00 | 0.00 | 0.00 | 77 | 29.8 |
| 20260505184000 | 60 | 252 | 10.4 | 13.9 | 0.00 | 0.00 | 0.00 | 78 | 29.8 |
| 20260505183500 | 60 | 256 | 7.8 | 13.9 | 0.00 | 0.00 | 0.00 | 77 | 29.8 |
| 20260505183000 | 60 | 210 | 5.2 | 11.3 | 0.00 | 0.00 | 0.00 | 79 | 29.8 |
| 20260505182500 | 59 | 219 | 8.7 | 13.0 | 0.00 | 0.00 | 0.00 | 79 | 29.8 |
| 20260505182000 | 59 | 251 | 13.0 | 21.7 | 0.00 | 0.00 | 0.00 | 79 | 29.8 |
| 20260505181500 | 59 | 165 | 4.3 | 14.8 | 0.00 | 0.00 | 0.00 | 80 | 29.8 |
| 20260505181000 | 59 | 199 | 16.5 | 18.2 | 0.00 | 0.00 | 0.00 | 79 | 29.8 |
| 20260505180500 | 60 | 205 | 11.3 | 15.6 | 0.00 | 0.00 | 0.00 | 78 | 29.8 |
| 20260505180000 | 59 | 216 | 15.6 | 20.0 | 0.00 | 0.00 | 0.00 | 79 | 29.8 |
| 20260505175500 | 59 | 206 | 10.4 | 22.6 | 0.00 | 0.00 | 0.00 | 79 | 29.8 |
| 20260505175000 | 60 | 188 | 6.1 | 12.2 | 0.00 | 0.00 | 0.00 | 80 | 29.8 |
| 20260505174500 | 59 | 197 | 14.8 | 18.2 | 0.00 | 0.00 | 0.00 | 79 | 29.8 |
| 20260505174000 | 59 | 209 | 10.4 | 19.1 | 0.00 | 0.00 | 0.00 | 79 | 29.8 |
| 20260505173500 | 60 | 219 | 14.8 | 16.5 | 0.00 | 0.00 | 0.00 | 79 | 29.8 |
| 20260505173000 | 60 | 231 | 9.6 | 9.6 | 0.00 | 0.00 | 0.00 | 79 | 29.8 |
| 20260505172500 | 60 | 202 | 8.7 | 16.5 | 0.00 | 0.00 | 0.00 | 79 | 29.9 |
| 20260505172000 | 60 | 214 | 6.1 | 13.9 | 0.00 | 0.00 | 0.00 | 79 | 29.8 |
| 20260505171500 | 59 | 227 | 8.7 | 15.6 | 0.00 | 0.00 | 0.00 | 80 | 29.9 |
| 20260505171000 | 59 | 218 | 12.2 | 17.4 | 0.00 | 0.00 | 0.00 | 80 | 29.9 |
| 20260505170500 | 59 | 220 | 9.6 | 17.4 | 0.00 | 0.00 | 0.00 | 80 | 29.9 |
| 20260505170000 | 59 | 208 | 6.1 | 13.9 | 0.00 | 0.00 | 0.00 | 81 | 29.9 |
| 20260505165500 | 58 | 193 | 13.9 | 17.4 | 0.00 | 0.00 | 0.00 | 81 | 29.9 |
| 20260505165000 | 58 | 216 | 12.2 | 17.4 | 0.00 | 0.00 | 0.00 | 82 | 29.9 |
| 20260505164500 | 58 | 206 | 17.4 | 17.4 | 0.00 | 0.00 | 0.00 | 81 | 29.9 |
| 20260505164000 | 59 | 194 | 8.7 | 13.0 | 0.00 | 0.00 | 0.00 | 81 | 29.9 |
| 20260505163501 | 58 | 214 | 12.2 | 18.2 | 0.00 | 0.00 | 0.00 | 81 | 29.9 |
| 20260505163000 | 59 | 201 | 11.3 | 18.2 | 0.00 | 0.00 | 0.00 | 81 | 29.9 |
| 20260505162500 | 60 | 162 | 6.1 | 12.2 | 0.00 | 0.00 | 0.00 | 79 | 29.9 |
| 20260505162000 | 59 | 217 | 9.6 | 14.8 | 0.00 | 0.00 | 0.00 | 81 | 29.9 |
| 20260505161500 | 58 | 218 | 10.4 | 14.8 | 0.00 | 0.00 | 0.00 | 81 | 29.9 |
| 20260505161000 | 58 | 207 | 11.3 | 17.4 | 0.00 | 0.00 | 0.00 | 82 | 29.9 |
| 20260505160500 | 58 | 206 | 9.6 | 16.5 | 0.00 | 0.00 | 0.00 | 82 | 29.9 |
| 20260505153001 | 58 | 190 | 8.7 | 12.2 | 0.00 | 0.00 | 0.00 | 82 | 29.9 |
| 20260505152500 | 58 | 202 | 10.4 | 13.0 | 0.00 | 0.00 | 0.00 | 82 | 29.9 |
| 20260505152000 | 58 | 216 | 7.8 | 12.2 | 0.00 | 0.00 | 0.00 | 82 | 29.9 |
| 20260505151500 | 59 | 206 | 12.2 | 13.0 | 0.00 | 0.00 | 0.00 | 81 | 29.9 |
| 20260505151000 | 59 | 228 | 6.1 | 10.4 | 0.00 | 0.00 | 0.00 | 82 | 29.9 |
| 20260505150500 | 59 | 194 | 9.6 | 12.2 | 0.00 | 0.00 | 0.00 | 82 | 29.9 |
| 20260505140500 | 58 | 210 | 8.7 | 11.3 | 0.00 | 0.00 | 0.00 | 84 | 29.9 |
| 20260505124500 | 56 | 206 | 9.6 | 13.9 | 0.00 | 0.00 | 0.00 | 87 | 29.9 |
| 20260505124000 | 56 | 221 | 7.0 | 12.2 | 0.00 | 0.00 | 0.00 | 88 | 29.9 |
| 20260505123500 | 56 | 215 | 6.1 | 7.8 | 0.00 | 0.00 | 0.00 | 89 | 29.9 |
| 20260505123000 | 56 | 206 | 8.7 | 10.4 | 0.00 | 0.00 | 0.00 | 89 | 29.9 |
| 20260505122500 | 56 | 201 | 7.8 | 9.6 | 0.00 | 0.00 | 0.00 | 88 | 29.9 |
| 20260505122000 | 56 | 208 | 10.4 | 11.3 | 0.00 | 0.00 | 0.00 | 88 | 29.9 |
| 20260505121500 | 56 | 173 | 3.5 | 11.3 | 0.00 | 0.00 | 0.00 | 88 | 29.9 |
| 20260505121001 | 56 | 212 | 3.5 | 7.0 | 0.00 | 0.00 | 0.00 | 89 | 29.9 |
| 20260505115500 | 56 | 226 | 9.6 | 11.3 | 0.00 | 0.00 | 0.00 | 89 | 29.9 |
| 20260505112500 | 55 | 211 | 9.6 | 12.2 | 0.00 | 0.00 | 0.00 | 90 | 29.9 |
| 20260505112000 | 55 | 167 | 2.6 | 13.0 | 0.00 | 0.00 | 0.00 | 91 | 29.9 |
| 20260505111000 | 55 | 216 | 6.1 | 9.6 | 0.00 | 0.00 | 0.00 | 91 | 29.9 |
| 20260505110500 | 55 | 213 | 5.2 | 10.4 | 0.00 | 0.00 | 0.00 | 91 | 29.9 |